SCP
0 0 0 0 0 0 0 0 0 0 0 0 0 0 0 0 0 0 0 0 0 0 0 0 0 0 0 0 0 0 0 0 0 0 0 0 0 0 0 0 0 0 0
0 0 0 0 0 0 0 0 0 0 0 0 0 0 0 0 0 0 0 0 0 0 0 0 0 0 0 0 0 0 0 0 0 0 0 0 0 0 0 0 0 0 0
0 0 0 0 0 0 0 0 0 0 0 0 0 0 0 0 0 0 0 0 0 0 0 0 0 0 0 0 0 0 0 0 0 0 0 0 0 0 0 0 0 0 0
0 0 0 0 0 0 0 0 0 0 0 0 0 0 0 0 0 0 0 0 0 0 0 0 0 0 0 0 0 0 0 0 0 0 0 0 0 0 0 0 0 0 0
1 1 1 0 0 0 0 0 0 0 0 0 0 0 0 0 0 0 0 0 0 0 0 0 0 0 0 0 0 0 0 0 0 0 0 0 0 0 0 0 0 0 0
1 1 1 1 0 0 0 0 0 0 0 0 0 0 0 0 0 0 0 0 0 0 0 0 0 0 0 0 0 0 0 0 0 0 0 0 0 0 0 0 0 0 0
1 1 1 1 1 0 0 0 0 0 0 0 0 0 0 0 0 0 0 0 0 0 0 0 0 0 0 0 0 0 0 0 0 0 0 0 0 0 0 0 0 0 0
1 1 1 1 1 1 0 0 0 0 0 0 0 0 0 0 0 0 0 0 0 0 0 0 0 0 0 0 0 0 0 0 0 0 0 0 0 0 0 0 0 0 0
1 1 1 1 1 1 0 0 0 0 0 0 0 0 0 0 0 0 0 0 0 0 0 0 0 0 0 0 0 0 0 1 1 1 1 1 1 1 1 0 0 0 0
1 1 1 1 1 1 0 0 0 0 0 0 0 0 0 0 0 0 0 0 0 0 0 0 0 0 0 0 0 0 0 1 1 1 1 1 1 1 1 1 1 0 0
0 1 1 1 1 0 0 0 0 0 0 0 0 0 0 0 0 0 0 0 0 0 0 0 0 0 0 0 0 0 0 0 1 1 1 1 1 1 1 1 0 0 0
0 0 1 1 0 0 0 0 0 0 0 0 0 0 0 0 0 0 0 0 0 0 0 0 0 0 0 0 0 0 1 0 0 0 1 1 1 1 1 0 0 0 0
0 1 1 1 0 0 0 0 0 0 0 0 0 0 0 0 0 0 0 0 0 0 0 0 0 0 0 0 0 0 1 0 0 0 0 0 0 0 0 0 0 0 0
0 1 1 1 1 0 1 1 0 0 0 0 0 0 0 0 0 0 0 0 0 0 0 0 0 0 0 0 0 0 0 0 0 0 0 0 0 0 0 0 0 0 0
0 1 1 1 1 1 1 1 1 0 0 0 0 0 0 0 0 0 0 0 0 0 0 0 0 0 0 0 0 0 0 0 0 0 0 0 0 0 0 0 0 0 0
0 1 1 1 1 1 1 1 1 1 1 1 1 0 0 0 0 0 0 0 0 0 0 0 0 0 0 0 0 0 0 0 0 0 0 0 0 0 0 0 0 0 0
2 1 1 1 1 1 1 1 1 1 1 1 1 1 1 1 0 0 0 0 0 0 0 0 0 0 0 0 0 0 0 0 0 0 0 0 0 0 0 0 0 0 0
3 2 1 1 1 1 1 1 1 1 1 1 1 1 1 1 1 1 0 0 0 0 0 0 0 0 0 0 0 0 0 0 0 0 0 0 0 0 0 0 0 0 0
2 1 1 1 1 1 1 1 2 2 1 1 1 1 1 1 1 1 1 0 0 0 0 0 0 0 0 0 0 0 0 0 0 0 0 0 0 0 0 0 0 0 0
1 1 1 1 1 1 1 1 2 2 1 1 1 1 1 1 1 1 1 1 1 0 0 0 0 0 0 0 0 0 0 0 0 0 0 0 0 0 0 0 0 0 0
1 1 1 1 1 1 1 1 2 2 2 2 1 1 1 1 1 1 1 1 1 1 1 0 0 0 0 0 0 0 0 0 0 0 0 0 0 0 0 0 0 0 0
2 2 1 1 1 1 1 1 2 2 2 2 2 2 1 1 1 1 1 1 1 1 1 1 0 0 0 0 0 0 0 0 0 0 0 0 0 0 0 0 0 0 0
2 2 2 1 1 1 1 1 1 2 2 3 2 2 2 2 1 1 0 0 0 0 0 0 0 0 0 0 0 0 0 0 0 0 0 0 0 0 0 0 0 0 0
2 2 1 1 1 1 1 0 0 1 2 2 3 3 3 2 2 1 1 0 0 0 0 0 0 0 0 0 0 0 0 0 0 0 0 0 0 0 0 0 0 0 0
2 1 1 1 1 1 1 0 0 1 1 2 2 2 3 3 2 1 1 1 0 0 0 0 0 0 0 0 0 0 0 0 0 0 0 0 0 0 0 0 0 0 0
1 1 1 1 1 1 1 0 0 1 1 1 1 2 2 2 2 1 1 1 1 0 0 0 0 0 0 0 0 0 0 0 0 0 0 0 0 0 0 0 0 0 0
Wind_Speed
4 3 2 2 2 2 2 2 2 1 1 2 3 5 6 5 4 3 3 11 10 10 10 10 10 10 9 9 9 8 8 8 8 8 8 8 7 8 8 8 7 6 6
4 4 3 3 2 2 2 2 3 2 2 2 3 5 6 5 5 4 3 6 10 10 10 10 10 10 10 9 9 8 8 8 8 7 7 7 7 7 7 7 7 6 5
5 4 4 3 2 2 3 2 2 1 2 3 4 5 5 5 5 5 4 3 4 8 9 9 9 9 10 9 9 9 9 9 8 8 7 7 7 6 6 7 7 6 6
5 4 3 3 2 2 2 2 2 2 2 2 3 3 4 4 5 5 4 4 3 4 6 10 9 9 10 10 10 10 9 9 9 9 8 8 7 7 7 7 7 7 6
5 4 4 3 3 2 2 2 2 2 2 2 2 2 3 3 4 6 5 6 5 4 4 7 10 10 11 11 11 10 10 10 10 10 10 9 9 8 8 7 7 7 7
5 4 3 3 3 3 2 2 3 2 2 2 2 1 1 2 3 4 6 5 5 6 5 5 5 6 11 10 10 11 11 11 11 11 11 11 10 9 9 8 8 8 8
5 5 3 3 3 3 3 4 3 3 1 2 2 2 2 1 2 3 3 4 5 6 6 6 4 4 4 9 10 11 12 12 12 12 12 11 11 10 9 9 9 8 8
5 5 5 4 4 3 3 3 3 2 1 2 3 2 1 3 3 2 2 4 6 5 6 8 6 6 5 3 6 11 12 12 13 12 12 11 11 10 10 10 10 9 9
5 5 5 5 4 4 4 4 4 4 2 1 2 4 3 3 2 3 2 3 4 4 5 5 7 7 7 5 5 9 13 12 13 13 13 12 11 11 11 11 11 10 10
5 5 5 5 5 4 4 4 4 3 4 2 1 1 3 4 3 1 2 2 3 4 5 6 7 7 7 5 7 10 13 13 13 13 13 12 12 12 11 12 12 12 11
5 6 5 5 5 4 5 4 4 3 3 3 2 1 1 1 2 2 2 2 2 2 4 5 5 5 7 6 6 9 12 13 13 13 12 12 12 12 13 13 13 13 12
3 5 5 5 5 4 5 5 4 5 3 3 3 2 2 2 2 2 2 2 2 3 3 3 4 5 5 6 8 11 13 13 12 12 12 11 11 11 12 13 13 13 13
3 5 5 5 4 5 5 5 4 4 4 4 3 2 2 3 2 3 3 2 2 2 2 2 3 4 4 4 5 9 11 12 12 12 12 11 10 10 10 11 11 11 11
4 5 5 5 5 5 5 4 3 4 3 4 4 3 2 2 2 3 3 3 1 2 2 3 2 3 4 4 6 9 6 11 12 12 12 11 11 11 10 10 10 9 9
4 5 5 5 5 5 5 5 3 4 3 4 3 3 2 1 1 2 2 3 4 2 3 3 2 3 3 3 4 4 4 8 11 11 11 11 11 11 10 10 9 9 8
4 4 5 5 5 5 5 5 4 3 4 3 3 3 2 1 1 1 1 2 3 4 3 3 3 2 2 3 4 4 4 6 8 9 9 10 10 10 10 10 10 9 8
4 4 5 5 5 5 4 4 4 4 4 3 3 3 3 2 1 1 1 1 2 2 3 2 2 1 0 1 1 2 2 3 3 7 8 9 9 9 9 9 8 8 7
4 4 4 4 4 4 4 5 5 5 5 4 4 3 3 2 2 2 1 1 1 2 3 2 1 1 1 1 1 1 1 2 2 4 6 7 8 7 7 7 7 7 7
3 3 3 4 3 3 4 4 5 5 4 4 4 3 3 3 2 2 2 1 1 1 2 2 2 1 1 1 1 1 1 1 0 1 3 4 5 5 5 6 6 6 6
3 3 3 3 2 2 3 3 4 4 3 3 3 3 3 3 3 3 2 2 1 1 1 1 1 0 0 1 1 1 1 1 1 2 2 2 1 0 2 3 4 5 5
3 3 2 2 1 1 2 3 3 4 3 3 2 2 2 3 3 2 2 2 2 1 1 1 0 1 1 1 0 0 1 0 1 2 2 2 2 2 1 1 1 2 3
3 3 2 2 2 1 2 4 4 3 3 3 2 1 1 2 2 3 3 3 3 3 2 2 1 1 0 0 0 0 1 1 1 2 2 2 2 2 2 1 2 2 1
3 3 3 3 2 2 3 4 5 4 3 2 2 1 1 1 2 2 3 4 4 4 3 3 2 1 1 0 1 1 1 1 0 2 1 1 2 2 2 2 3 4 4
3 3 3 3 3 3 4 6 7 5 4 3 2 2 2 2 2 3 4 4 4 4 3 2 2 2 1 1 1 1 1 1 1 2 2 1 2 2 2 2 4 4 5
4 4 3 4 4 3 4 5 7 5 5 4 4 3 3 3 4 6 6 6 5 4 6 8 8 7 7 6 3 3 3 2 2 2 2 1 2 2 2 2 3 5 5
5 5 5 4 4 4 4 6 6 4 5 4 4 5 7 5 6 6 5 5 5 3 4 5 6 6 5 6 8 4 2 2 2 1 3 2 1 2 2 3 3 3 4
Wind_Direction
162 164 165 173 182 180 178 191 209 203 177 142 138 140 143 144 146 153 162 167 164 162 162 162 162 161 162 161 160 159 157 157 155 152 152 152 153 154 154 152 152 150 150
167 166 166 172 182 182 179 180 191 178 156 137 138 143 144 151 155 160 162 172 172 170 171 171 172 173 172 171 171 171 169 169 165 165 165 164 164 167 167 164 164 163 161
168 163 163 170 181 172 160 146 155 123 129 132 134 144 151 161 164 170 169 170 176 181 181 182 182 183 183 183 183 183 181 179 177 177 177 176 176 177 177 177 176 174 174
166 159 158 169 170 155 148 140 131 111 112 127 135 152 153 164 172 174 175 178 181 188 194 194 191 193 194 195 194 194 191 188 187 188 188 188 189 188 188 187 187 187 188
164 158 156 166 160 145 148 156 129 132 136 139 145 150 152 165 175 177 183 191 192 193 194 203 200 201 204 205 203 202 200 199 197 198 199 200 201 199 198 200 200 201 202
167 157 158 163 148 136 140 137 134 124 138 150 144 129 162 181 182 188 193 193 197 201 199 204 201 212 215 214 210 210 210 208 206 206 208 209 210 207 206 207 208 211 212
171 162 164 162 149 151 161 149 132 124 120 121 87 37 349 322 211 206 199 191 202 204 197 203 202 205 220 223 219 217 217 216 213 211 212 212 213 212 210 211 213 217 220
175 174 167 167 160 153 153 145 131 126 135 138 129 111 10 339 314 240 213 200 205 203 202 207 206 209 214 213 223 223 223 223 220 217 216 216 216 214 214 215 217 221 225
179 172 172 169 166 162 169 170 156 147 158 175 152 146 154 215 276 304 252 220 201 198 206 203 206 213 216 214 220 229 227 224 224 222 220 217 216 215 216 219 223 224 226
181 178 174 173 174 172 175 184 170 159 151 168 198 182 172 163 161 273 310 276 230 211 206 211 210 212 214 210 215 220 225 223 223 224 222 220 219 218 218 222 228 230 231
191 186 179 176 176 177 182 180 165 164 159 163 174 175 157 148 150 154 243 287 286 240 215 215 213 210 209 208 211 219 221 221 222 223 223 224 224 222 223 228 233 236 237
199 193 183 180 180 181 184 185 177 171 171 165 170 168 164 168 187 171 196 234 248 263 238 221 217 216 213 207 216 217 216 219 220 222 223 224 225 226 227 230 235 239 243
204 201 194 184 183 188 186 179 175 176 175 171 178 182 178 187 177 168 169 199 234 275 284 254 230 223 218 203 218 219 218 217 217 219 221 223 226 227 227 230 237 242 247
201 195 192 190 189 186 186 175 177 187 181 182 186 180 178 196 183 178 170 159 180 295 293 267 257 225 220 202 216 213 219 217 218 220 222 224 226 227 227 229 232 237 242
199 193 187 189 190 186 183 174 182 189 180 189 192 187 187 199 187 188 174 164 160 196 256 263 260 248 221 199 206 200 212 221 220 221 223 225 227 228 228 230 233 236 240
198 186 185 189 188 187 185 185 184 190 185 196 191 186 192 194 173 166 169 169 167 173 218 252 247 256 234 208 193 192 210 221 221 221 224 228 230 230 232 233 234 235 238
189 186 184 183 184 188 187 178 180 179 187 201 202 196 206 199 192 198 158 149 162 159 192 262 278 292 264 214 194 204 211 219 225 224 223 226 230 233 235 234 234 236 238
182 179 174 171 180 183 182 185 189 185 189 199 205 201 219 209 206 202 173 171 181 178 174 218 280 307 296 232 190 191 211 210 217 226 227 233 236 237 236 233 230 231 234
168 168 162 168 176 179 184 192 185 185 191 200 197 196 213 197 209 209 186 189 207 191 166 174 229 250 294 354 39 5 31 357 208 231 234 243 238 233 232 230 226 229 232
165 162 163 164 171 179 182 186 178 178 183 185 184 184 188 186 201 203 192 206 202 172 148 149 192 251 326 346 82 65 18 358 3 19 21 31 47 216 229 222 222 223 224
163 158 147 142 140 153 176 171 165 163 162 168 172 169 156 143 153 172 179 190 173 154 138 127 128 59 31 42 62 139 143 328 10 27 15 8 27 31 17 7 285 257 240
140 129 127 134 128 163 137 146 150 147 142 151 165 170 139 116 104 108 111 114 130 154 166 151 151 143 198 149 5 87 107 69 339 345 31 359 28 19 357 12 11 10 332
131 129 136 131 124 112 120 129 132 130 121 124 134 132 116 77 96 102 87 76 64 63 112 148 143 173 176 213 113 63 75 94 274 317 48 5 1 2 341 6 17 15 1
126 120 117 117 111 92 109 126 126 120 110 101 99 113 117 98 90 109 104 84 65 45 58 92 115 116 112 135 154 160 154 111 58 7 44 62 348 333 339 354 8 9 358
113 103 102 101 100 79 90 121 126 111 100 83 71 75 102 107 92 104 106 101 83 55 59 75 81 78 69 59 64 76 66 81 49 356 9 64 340 331 339 339 352 4 355
112 107 90 82 87 81 84 113 125 116 105 92 66 55 62 78 84 98 111 113 103 86 79 74 62 52 49 45 47 59 80 96 90 6 342 28 0 11 355 329 340 351 352